Tracking 30701 objects as of 14-Jun-2025
HD Live streaming from Space Station
objects crossing your sky now

STARLINK-4784

Track STARLINK-4784 now!
10-day predictions
STARLINK-4784 is classified as:


NORAD ID: 53839
Int'l Code: 2022-114X
Perigee: 545.0 km
Apogee: 548.6 km
Inclination: 53.2 °
Period: 95.4 minutes
Semi major axis: 6917 km
RCS: Unknown
Launch date: September 19, 2022
Source: United States (US)
Launch site: AIR FORCE EASTERN TEST RANGE (AFETR)
Your satellite tracking list
Your tracking list is empty




NASA's NSSDC Master Catalog

Two Line Element Set (TLE):
1 53839U 22114X   25164.99022224  .00002330  00000-0  16437-3 0  9998
2 53839  53.2154  60.6023 0002604  91.2774 268.8516 15.08860899152401
Source of the keplerian elements: AFSPC